This demonstration page uses our WeatherBlox Daily Observations layout. Learn more.

Left ArrowRight Arrow

39.08367, -84.50855

Hourly Observations for December 28, 2020

Temp ( °F °C ) Dew Point ( °F °C ) Humidity (%) Winds ( mph kmh ) Pressure ( in mb ) Visibility ( mi km ) Precip ( " mm )
12:53 am 00:53 Cloudy 51 10.6 32 0 48 48 SSW 14 22 29.92 1013 10 16.0934 0.001 0.001
1:53 am 01:53 Cloudy 52 11.1 32 0 47 47 SSW 15 24 29.93 1014 10 16.0934 0 0
2:53 am 02:53 Cloudy 52 11.1 33 0.6 49 49 SSW 16 26 29.96 1015 10 16.0934 0 0
3:53 am 03:53 Cloudy 52 11.1 34 1.1 50 50 SSW 16 26 29.98 1015 10 16.0934 0 0
4:53 am 04:53 Cloudy 51 10.6 35 1.7 54 54 SSW 10 17 30.01 1016 10 16.0934 0 0
5:53 am 05:53 Cloudy 46 7.8 34 1.1 63 63 WNW 16 26 30.07 1018 10 16.0934 0 0
6:53 am 06:53 Mostly Cloudy 42 5.6 31 -0.6 65 65 WNW 8 13 30.12 1020 10 16.0934 0 0
7:53 am 07:53 Partly Cloudy 36 2.2 29 -1.7 76 76 N 5 7 30.17 1022 8 12.87472 0 0
8:53 am 08:53 Mostly Cloudy 35 1.7 28 -2.2 76 76 NW 7 11 30.21 1023 8 12.87472 0 0
9:53 am 09:53 Mostly Cloudy 36 2.2 27 -2.8 70 70 NW 13 20 30.24 1024 10 16.0934 0 0
10:53 am 10:53 Cloudy 36 2.2 27 -2.8 70 70 NW 10 17 30.28 1026 9 14.48406 0 0
11:53 am 11:53 Cloudy 37 2.8 27 -2.8 67 67 NW 8 13 30.28 1025 10 16.0934 0 0
12:53 pm 12:53 Cloudy 37 2.8 27 -2.8 67 67 NNW 13 20 30.29 1026 10 16.0934 0 0
1:53 pm 13:53 Cloudy 38 3.3 26 -3.3 62 62 W 8 13 30.3 1026 10 16.0934 0 0
2:53 pm 14:53 Cloudy 36 2.2 26 -3.3 67 67 VRB 6 9 30.32 1027 10 16.0934 0 0
3:53 pm 15:53 Cloudy 36 2.2 25 -3.9 64 64 WNW 7 11 30.35 1028 10 16.0934 0 0
4:53 pm 16:53 Cloudy 35 1.7 25 -3.9 67 67 NNW 7 11 30.38 1029 10 16.0934 0 0
5:53 pm 17:53 Cloudy 35 1.7 25 -3.9 67 67 W 12 19 30.4 1030 10 16.0934 0 0
6:53 pm 18:53 Cloudy 35 1.7 24 -4.4 64 64 W 10 17 30.43 1030 10 16.0934 0 0
7:53 pm 19:53 Cloudy 34 1.1 24 -4.4 67 67 NNW 12 19 30.45 1031 10 16.0934 0 0
8:53 pm 20:53 Cloudy 33 0.6 24 -4.4 70 70 NNW 9 15 30.47 1032 10 16.0934 0 0
9:53 pm 21:53 Cloudy 32 0 23 -5 69 69 NW 10 17 30.47 1032 10 16.0934 0 0
10:53 pm 22:53 Cloudy 31 -0.6 22 -5.6 69 69 NNW 9 15 30.49 1033 10 16.0934 0 0
11:53 pm 23:53 Cloudy 31 -0.6 21 -6.1 67 67 NNW 7 11 30.51 1033 10 16.0934 0 0

Powered by AerisWeather